Powrót do katalogu

THOR ABLESTAR DEB

AktywnyLEO
NORAD 246·DEBRIS·🇺🇸 United States

Wystrzelony Jun 29, 1961 z Cape Canaveral Space Force Station

Loading…

Następne Przeloty (najbliższe 24 godziny)

TLE

ŚwieżeSource: Space-Track

Epoka: Sep 6, 2026, 06:30 UTC

1 00246U 61015CB  26249.27114800 -.00000051  00000-0  20695-4 0  9994
2 00246  66.8719 356.0566 0059058  74.5516 286.2073 13.86167775635101

Śledź THOR ABLESTAR DEB w czasie rzeczywistym z AllMySat

Download on the App Store